owner,sensor,date,latitude,longitude,sea_surface_height_above_sea_level,qcFlag 
COMPS,ioos:station:USF.COMPS:ANM:1,2009-12-01T00:00:00Z,27.5400,-82.7400,0.329,1111122 
COMPS,ioos:station:USF.COMPS:ANM:1,2009-12-01T00:06:00Z,27.5400,-82.7400,0.336,1111122 
COMPS,ioos:station:USF.COMPS:ANM:1,2009-12-01T00:12:00Z,27.5400,-82.7400,0.335,1111122 
COMPS,ioos:station:USF.COMPS:ANM:1,2009-12-01T00:18:00Z,27.5400,-82.7400,0.346,1111122 
COMPS,ioos:station:USF.COMPS:ANM:1,2009-12-01T00:24:00Z,27.5400,-82.7400,0.358,1111122 
COMPS,ioos:station:USF.COMPS:ANM:1,2009-12-01T00:30:00Z,27.5400,-82.7400,0.367,1111122 
COMPS,ioos:station:USF.COMPS:ANM:1,2009-12-01T00:36:00Z,27.5400,-82.7400,0.362,1111122 
COMPS,ioos:station:USF.COMPS:ANM:1,2009-12-01T00:42:00Z,27.5400,-82.7400,0.385,1111122 
COMPS,ioos:station:USF.COMPS:ANM:1,2009-12-01T00:48:00Z,27.5400,-82.7400,0.403,1111122 
COMPS,ioos:station:USF.COMPS:ANM:1,2009-12-01T00:54:00Z,27.5400,-82.7400,0.407,1111122 
COMPS,ioos:station:USF.COMPS:ANM:1,2009-12-01T01:00:00Z,27.5400,-82.7400,0.412,1111122 
COMPS,ioos:station:USF.COMPS:ANM:1,2009-12-01T01:06:00Z,27.5400,-82.7400,0.405,1111122 
COMPS,ioos:station:USF.COMPS:ANM:1,2009-12-01T01:12:00Z,27.5400,-82.7400,0.41,1111122 
COMPS,ioos:station:USF.COMPS:ANM:1,2009-12-01T01:18:00Z,27.5400,-82.7400,0.268,1111122 
COMPS,ioos:station:USF.COMPS:ANM:1,2009-12-01T01:24:00Z,27.5400,-82.7400,-0.037,1111122 
COMPS,ioos:station:USF.COMPS:ANM:1,2009-12-01T01:30:00Z,27.5400,-82.7400,-0.031,1111122 
COMPS,ioos:station:USF.COMPS:ANM:1,2009-12-01T01:36:00Z,27.5400,-82.7400,-0.026,1111122 
COMPS,ioos:station:USF.COMPS:ANM:1,2009-12-01T01:42:00Z,27.5400,-82.7400,-0.03,1111122 
COMPS,ioos:station:USF.COMPS:ANM:1,2009-12-01T01:48:00Z,27.5400,-82.7400,-0.032,1111122 
COMPS,ioos:station:USF.COMPS:ANM:1,2009-12-01T01:54:00Z,27.5400,-82.7400,-0.018,1111122 
COMPS,ioos:station:USF.COMPS:ANM:1,2009-12-01T02:00:00Z,27.5400,-82.7400,-0.007,1111122 
COMPS,ioos:station:USF.COMPS:ANM:1,2009-12-01T02:06:00Z,27.5400,-82.7400,-0.016,1111122 
COMPS,ioos:station:USF.COMPS:ANM:1,2009-12-01T02:12:00Z,27.5400,-82.7400,-0.008,1111122 
COMPS,ioos:station:USF.COMPS:ANM:1,2009-12-01T02:18:00Z,27.5400,-82.7400,-0.016,1111122 
COMPS,ioos:station:USF.COMPS:ANM:1,2009-12-01T02:24:00Z,27.5400,-82.7400,-0.017,1111122 
COMPS,ioos:station:USF.COMPS:ANM:1,2009-12-01T02:30:00Z,27.5400,-82.7400,-0.023,1111122 
COMPS,ioos:station:USF.COMPS:ANM:1,2009-12-01T02:36:00Z,27.5400,-82.7400,-0.021,1111122 
COMPS,ioos:station:USF.COMPS:ANM:1,2009-12-01T02:42:00Z,27.5400,-82.7400,-0.013,1111122 
COMPS,ioos:station:USF.COMPS:ANM:1,2009-12-01T02:48:00Z,27.5400,-82.7400,-0.008,1111122 
COMPS,ioos:station:USF.COMPS:ANM:1,2009-12-01T02:54:00Z,27.5400,-82.7400,-0.001,1111122 
COMPS,ioos:station:USF.COMPS:ANM:1,2009-12-01T03:00:00Z,27.5400,-82.7400,-0.016,1111122 
COMPS,ioos:station:USF.COMPS:ANM:1,2009-12-01T03:06:00Z,27.5400,-82.7400,-0.022,1111122 
COMPS,ioos:station:USF.COMPS:ANM:1,2009-12-01T03:12:00Z,27.5400,-82.7400,-0.016,1111122 
COMPS,ioos:station:USF.COMPS:ANM:1,2009-12-01T03:18:00Z,27.5400,-82.7400,-0.026,1111122 
COMPS,ioos:station:USF.COMPS:ANM:1,2009-12-01T03:24:00Z,27.5400,-82.7400,-0.025,1111122 
COMPS,ioos:station:USF.COMPS:ANM:1,2009-12-01T03:30:00Z,27.5400,-82.7400,-0.027,1111122 
COMPS,ioos:station:USF.COMPS:ANM:1,2009-12-01T03:36:00Z,27.5400,-82.7400,-0.036,1111122 
COMPS,ioos:station:USF.COMPS:ANM:1,2009-12-01T03:42:00Z,27.5400,-82.7400,-0.042,1111122 
COMPS,ioos:station:USF.COMPS:ANM:1,2009-12-01T03:48:00Z,27.5400,-82.7400,-0.061,1111122 
COMPS,ioos:station:USF.COMPS:ANM:1,2009-12-01T03:54:00Z,27.5400,-82.7400,-0.068,1111122 
COMPS,ioos:station:USF.COMPS:ANM:1,2009-12-01T04:00:00Z,27.5400,-82.7400,-0.082,1111122 
COMPS,ioos:station:USF.COMPS:ANM:1,2009-12-01T04:06:00Z,27.5400,-82.7400,-0.103,1111122 
COMPS,ioos:station:USF.COMPS:ANM:1,2009-12-01T04:12:00Z,27.5400,-82.7400,-0.11,1111122 
COMPS,ioos:station:USF.COMPS:ANM:1,2009-12-01T04:18:00Z,27.5400,-82.7400,-0.12,1111122 
COMPS,ioos:station:USF.COMPS:ANM:1,2009-12-01T04:24:00Z,27.5400,-82.7400,-0.133,1111122 
COMPS,ioos:station:USF.COMPS:ANM:1,2009-12-01T04:30:00Z,27.5400,-82.7400,-0.139,1111122 
COMPS,ioos:station:USF.COMPS:ANM:1,2009-12-01T04:36:00Z,27.5400,-82.7400,-0.154,1111122 
COMPS,ioos:station:USF.COMPS:ANM:1,2009-12-01T04:42:00Z,27.5400,-82.7400,-0.181,1111122 
COMPS,ioos:station:USF.COMPS:ANM:1,2009-12-01T04:48:00Z,27.5400,-82.7400,-0.195,1111122 
COMPS,ioos:station:USF.COMPS:ANM:1,2009-12-01T04:54:00Z,27.5400,-82.7400,-0.22,1111122 
COMPS,ioos:station:USF.COMPS:ANM:1,2009-12-01T05:00:00Z,27.5400,-82.7400,-0.242,1111122 
COMPS,ioos:station:USF.COMPS:ANM:1,2009-12-01T05:06:00Z,27.5400,-82.7400,-0.254,1111122 
COMPS,ioos:station:USF.COMPS:ANM:1,2009-12-01T05:12:00Z,27.5400,-82.7400,-0.249,1111122 
COMPS,ioos:station:USF.COMPS:ANM:1,2009-12-01T05:18:00Z,27.5400,-82.7400,-0.27,1111122 
COMPS,ioos:station:USF.COMPS:ANM:1,2009-12-01T05:24:00Z,27.5400,-82.7400,-0.289,1111122 
COMPS,ioos:station:USF.COMPS:ANM:1,2009-12-01T05:30:00Z,27.5400,-82.7400,-0.328,1111122 
COMPS,ioos:station:USF.COMPS:ANM:1,2009-12-01T05:36:00Z,27.5400,-82.7400,-0.352,1111122 
COMPS,ioos:station:USF.COMPS:ANM:1,2009-12-01T05:42:00Z,27.5400,-82.7400,-0.381,1111122 
COMPS,ioos:station:USF.COMPS:ANM:1,2009-12-01T05:48:00Z,27.5400,-82.7400,-0.417,1111122 
COMPS,ioos:station:USF.COMPS:ANM:1,2009-12-01T05:54:00Z,27.5400,-82.7400,-0.423,1111122 
COMPS,ioos:station:USF.COMPS:ANM:1,2009-12-01T06:00:00Z,27.5400,-82.7400,-0.443,1111122 
COMPS,ioos:station:USF.COMPS:ANM:1,2009-12-01T06:06:00Z,27.5400,-82.7400,-0.471,1111122 
COMPS,ioos:station:USF.COMPS:ANM:1,2009-12-01T06:12:00Z,27.5400,-82.7400,-0.518,1111122 
COMPS,ioos:station:USF.COMPS:ANM:1,2009-12-01T06:18:00Z,27.5400,-82.7400,-0.546,1111122 
COMPS,ioos:station:USF.COMPS:ANM:1,2009-12-01T06:24:00Z,27.5400,-82.7400,-0.57,1111122 
COMPS,ioos:station:USF.COMPS:ANM:1,2009-12-01T06:30:00Z,27.5400,-82.7400,-0.598,1111122 
COMPS,ioos:station:USF.COMPS:ANM:1,2009-12-01T06:36:00Z,27.5400,-82.7400,-0.615,1111122 
COMPS,ioos:station:USF.COMPS:ANM:1,2009-12-01T06:42:00Z,27.5400,-82.7400,-0.633,1111122 
COMPS,ioos:station:USF.COMPS:ANM:1,2009-12-01T06:48:00Z,27.5400,-82.7400,-0.654,1111122 
COMPS,ioos:station:USF.COMPS:ANM:1,2009-12-01T06:54:00Z,27.5400,-82.7400,-0.673,1111122 
COMPS,ioos:station:USF.COMPS:ANM:1,2009-12-01T07:00:00Z,27.5400,-82.7400,-0.706,1111122 
COMPS,ioos:station:USF.COMPS:ANM:1,2009-12-01T07:06:00Z,27.5400,-82.7400,-0.73,1111122 
COMPS,ioos:station:USF.COMPS:ANM:1,2009-12-01T07:12:00Z,27.5400,-82.7400,-0.746,1111122 
COMPS,ioos:station:USF.COMPS:ANM:1,2009-12-01T07:18:00Z,27.5400,-82.7400,-0.77,1111122 
COMPS,ioos:station:USF.COMPS:ANM:1,2009-12-01T07:24:00Z,27.5400,-82.7400,-0.794,1111122 
COMPS,ioos:station:USF.COMPS:ANM:1,2009-12-01T07:30:00Z,27.5400,-82.7400,-0.814,1111122 
COMPS,ioos:station:USF.COMPS:ANM:1,2009-12-01T07:36:00Z,27.5400,-82.7400,-0.831,1111122 
COMPS,ioos:station:USF.COMPS:ANM:1,2009-12-01T07:42:00Z,27.5400,-82.7400,-0.853,1111122 
COMPS,ioos:station:USF.COMPS:ANM:1,2009-12-01T07:48:00Z,27.5400,-82.7400,-0.878,1111122 
COMPS,ioos:station:USF.COMPS:ANM:1,2009-12-01T07:54:00Z,27.5400,-82.7400,-0.889,1111122 
COMPS,ioos:station:USF.COMPS:ANM:1,2009-12-01T08:00:00Z,27.5400,-82.7400,-0.905,1111122 
COMPS,ioos:station:USF.COMPS:ANM:1,2009-12-01T08:06:00Z,27.5400,-82.7400,-0.935,1111122 
COMPS,ioos:station:USF.COMPS:ANM:1,2009-12-01T08:12:00Z,27.5400,-82.7400,-0.957,1111122 
COMPS,ioos:station:USF.COMPS:ANM:1,2009-12-01T08:18:00Z,27.5400,-82.7400,-0.97,1111122 
COMPS,ioos:station:USF.COMPS:ANM:1,2009-12-01T08:24:00Z,27.5400,-82.7400,-0.993,1111122 
COMPS,ioos:station:USF.COMPS:ANM:1,2009-12-01T08:30:00Z,27.5400,-82.7400,-1.002,1111122 
COMPS,ioos:station:USF.COMPS:ANM:1,2009-12-01T08:36:00Z,27.5400,-82.7400,-1.013,1111122 
COMPS,ioos:station:USF.COMPS:ANM:1,2009-12-01T08:42:00Z,27.5400,-82.7400,-1.027,1111122 
COMPS,ioos:station:USF.COMPS:ANM:1,2009-12-01T08:48:00Z,27.5400,-82.7400,-1.045,1111122 
COMPS,ioos:station:USF.COMPS:ANM:1,2009-12-01T08:54:00Z,27.5400,-82.7400,-1.049,1111122 
COMPS,ioos:station:USF.COMPS:ANM:1,2009-12-01T09:00:00Z,27.5400,-82.7400,-1.064,1111122 
COMPS,ioos:station:USF.COMPS:ANM:1,2009-12-01T09:06:00Z,27.5400,-82.7400,-1.074,1111122 
COMPS,ioos:station:USF.COMPS:ANM:1,2009-12-01T09:12:00Z,27.5400,-82.7400,-1.084,1111122 
COMPS,ioos:station:USF.COMPS:ANM:1,2009-12-01T09:18:00Z,27.5400,-82.7400,-1.095,1111122 
COMPS,ioos:station:USF.COMPS:ANM:1,2009-12-01T09:24:00Z,27.5400,-82.7400,-1.109,1111122 
COMPS,ioos:station:USF.COMPS:ANM:1,2009-12-01T09:30:00Z,27.5400,-82.7400,-1.127,1111122 
COMPS,ioos:station:USF.COMPS:ANM:1,2009-12-01T09:36:00Z,27.5400,-82.7400,-1.151,1111122 
COMPS,ioos:station:USF.COMPS:ANM:1,2009-12-01T09:42:00Z,27.5400,-82.7400,-1.148,1111122 
COMPS,ioos:station:USF.COMPS:ANM:1,2009-12-01T09:48:00Z,27.5400,-82.7400,-1.151,1111122 
COMPS,ioos:station:USF.COMPS:ANM:1,2009-12-01T09:54:00Z,27.5400,-82.7400,-1.157,1111122 
COMPS,ioos:station:USF.COMPS:ANM:1,2009-12-01T10:00:00Z,27.5400,-82.7400,-1.167,1111122 
COMPS,ioos:station:USF.COMPS:ANM:1,2009-12-01T10:06:00Z,27.5400,-82.7400,-1.181,1111122 
COMPS,ioos:station:USF.COMPS:ANM:1,2009-12-01T10:12:00Z,27.5400,-82.7400,-1.05,1111122 
COMPS,ioos:station:USF.COMPS:ANM:1,2009-12-01T10:18:00Z,27.5400,-82.7400,-0.868,1111122 
COMPS,ioos:station:USF.COMPS:ANM:1,2009-12-01T10:24:00Z,27.5400,-82.7400,-0.95,1111122 
COMPS,ioos:station:USF.COMPS:ANM:1,2009-12-01T10:30:00Z,27.5400,-82.7400,-0.838,1111122 
COMPS,ioos:station:USF.COMPS:ANM:1,2009-12-01T10:36:00Z,27.5400,-82.7400,-1.166,1111122 
COMPS,ioos:station:USF.COMPS:ANM:1,2009-12-01T10:42:00Z,27.5400,-82.7400,-0.885,1111122 
COMPS,ioos:station:USF.COMPS:ANM:1,2009-12-01T10:48:00Z,27.5400,-82.7400,-1.172,1111122 
COMPS,ioos:station:USF.COMPS:ANM:1,2009-12-01T10:54:00Z,27.5400,-82.7400,-0.972,1111122 
COMPS,ioos:station:USF.COMPS:ANM:1,2009-12-01T11:00:00Z,27.5400,-82.7400,-0.895,1111122 
COMPS,ioos:station:USF.COMPS:ANM:1,2009-12-01T11:06:00Z,27.5400,-82.7400,-1.149,1111122 
COMPS,ioos:station:USF.COMPS:ANM:1,2009-12-01T11:12:00Z,27.5400,-82.7400,-0.87,1111122 
COMPS,ioos:station:USF.COMPS:ANM:1,2009-12-01T11:18:00Z,27.5400,-82.7400,-0.951,1111122 
COMPS,ioos:station:USF.COMPS:ANM:1,2009-12-01T11:24:00Z,27.5400,-82.7400,-0.91,1111122 
COMPS,ioos:station:USF.COMPS:ANM:1,2009-12-01T11:30:00Z,27.5400,-82.7400,-0.946,1111122 
COMPS,ioos:station:USF.COMPS:ANM:1,2009-12-01T11:36:00Z,27.5400,-82.7400,-1.113,1111122 
COMPS,ioos:station:USF.COMPS:ANM:1,2009-12-01T11:42:00Z,27.5400,-82.7400,-1.099,1111122 
COMPS,ioos:station:USF.COMPS:ANM:1,2009-12-01T11:48:00Z,27.5400,-82.7400,-1.082,1111122 
COMPS,ioos:station:USF.COMPS:ANM:1,2009-12-01T11:54:00Z,27.5400,-82.7400,-1.054,1111122 
COMPS,ioos:station:USF.COMPS:ANM:1,2009-12-01T12:00:00Z,27.5400,-82.7400,-1.039,1111122 
COMPS,ioos:station:USF.COMPS:ANM:1,2009-12-01T12:06:00Z,27.5400,-82.7400,-1.041,1111122 
COMPS,ioos:station:USF.COMPS:ANM:1,2009-12-01T12:12:00Z,27.5400,-82.7400,-1.022,1111122 
COMPS,ioos:station:USF.COMPS:ANM:1,2009-12-01T12:18:00Z,27.5400,-82.7400,-0.997,1111122 
COMPS,ioos:station:USF.COMPS:ANM:1,2009-12-01T12:24:00Z,27.5400,-82.7400,-0.993,1111122 
COMPS,ioos:station:USF.COMPS:ANM:1,2009-12-01T12:30:00Z,27.5400,-82.7400,-0.976,1111122 
COMPS,ioos:station:USF.COMPS:ANM:1,2009-12-01T12:36:00Z,27.5400,-82.7400,-0.951,1111122 
COMPS,ioos:station:USF.COMPS:ANM:1,2009-12-01T12:42:00Z,27.5400,-82.7400,-0.933,1111122 
COMPS,ioos:station:USF.COMPS:ANM:1,2009-12-01T12:48:00Z,27.5400,-82.7400,-0.913,1111122 
COMPS,ioos:station:USF.COMPS:ANM:1,2009-12-01T12:54:00Z,27.5400,-82.7400,-0.9,1111122 
COMPS,ioos:station:USF.COMPS:ANM:1,2009-12-01T13:00:00Z,27.5400,-82.7400,-0.887,1111122 
COMPS,ioos:station:USF.COMPS:ANM:1,2009-12-01T13:06:00Z,27.5400,-82.7400,-0.882,1111122 
COMPS,ioos:station:USF.COMPS:ANM:1,2009-12-01T13:12:00Z,27.5400,-82.7400,-0.865,1111122 
COMPS,ioos:station:USF.COMPS:ANM:1,2009-12-01T13:18:00Z,27.5400,-82.7400,-0.256,1111122 
COMPS,ioos:station:USF.COMPS:ANM:1,2009-12-01T13:24:00Z,27.5400,-82.7400,-0.247,1111122 
COMPS,ioos:station:USF.COMPS:ANM:1,2009-12-01T13:30:00Z,27.5400,-82.7400,-0.235,1111122 
COMPS,ioos:station:USF.COMPS:ANM:1,2009-12-01T13:36:00Z,27.5400,-82.7400,-0.221,1111122 
COMPS,ioos:station:USF.COMPS:ANM:1,2009-12-01T13:42:00Z,27.5400,-82.7400,-0.197,1111122 
COMPS,ioos:station:USF.COMPS:ANM:1,2009-12-01T13:48:00Z,27.5400,-82.7400,-0.181,1111122 
COMPS,ioos:station:USF.COMPS:ANM:1,2009-12-01T13:54:00Z,27.5400,-82.7400,-0.172,1111122 
COMPS,ioos:station:USF.COMPS:ANM:1,2009-12-01T14:00:00Z,27.5400,-82.7400,-0.155,1111122 
COMPS,ioos:station:USF.COMPS:ANM:1,2009-12-01T14:06:00Z,27.5400,-82.7400,-0.138,1111122 
COMPS,ioos:station:USF.COMPS:ANM:1,2009-12-01T14:12:00Z,27.5400,-82.7400,-0.125,1111122 
COMPS,ioos:station:USF.COMPS:ANM:1,2009-12-01T14:18:00Z,27.5400,-82.7400,-0.11,1111122 
COMPS,ioos:station:USF.COMPS:ANM:1,2009-12-01T14:24:00Z,27.5400,-82.7400,-0.095,1111122 
COMPS,ioos:station:USF.COMPS:ANM:1,2009-12-01T14:30:00Z,27.5400,-82.7400,-0.082,1111122 
COMPS,ioos:station:USF.COMPS:ANM:1,2009-12-01T14:36:00Z,27.5400,-82.7400,-0.07,1111122 
COMPS,ioos:station:USF.COMPS:ANM:1,2009-12-01T14:42:00Z,27.5400,-82.7400,-0.062,1111122 
COMPS,ioos:station:USF.COMPS:ANM:1,2009-12-01T14:48:00Z,27.5400,-82.7400,-0.053,1111122 
COMPS,ioos:station:USF.COMPS:ANM:1,2009-12-01T14:54:00Z,27.5400,-82.7400,-0.037,1111122 
COMPS,ioos:station:USF.COMPS:ANM:1,2009-12-01T15:00:00Z,27.5400,-82.7400,-0.025,1111122 
COMPS,ioos:station:USF.COMPS:ANM:1,2009-12-01T15:06:00Z,27.5400,-82.7400,-0.022,1111122 
COMPS,ioos:station:USF.COMPS:ANM:1,2009-12-01T15:12:00Z,27.5400,-82.7400,-0.022,1111122 
COMPS,ioos:station:USF.COMPS:ANM:1,2009-12-01T15:18:00Z,27.5400,-82.7400,-0.009,1111122 
COMPS,ioos:station:USF.COMPS:ANM:1,2009-12-01T15:24:00Z,27.5400,-82.7400,0.008,1111122 
COMPS,ioos:station:USF.COMPS:ANM:1,2009-12-01T15:30:00Z,27.5400,-82.7400,0.018,1111122 
COMPS,ioos:station:USF.COMPS:ANM:1,2009-12-01T15:36:00Z,27.5400,-82.7400,0.024,1111122 
COMPS,ioos:station:USF.COMPS:ANM:1,2009-12-01T15:42:00Z,27.5400,-82.7400,0.025,1111122 
COMPS,ioos:station:USF.COMPS:ANM:1,2009-12-01T15:48:00Z,27.5400,-82.7400,0.036,1111122 
COMPS,ioos:station:USF.COMPS:ANM:1,2009-12-01T15:54:00Z,27.5400,-82.7400,0.04,1111122 
COMPS,ioos:station:USF.COMPS:ANM:1,2009-12-01T16:00:00Z,27.5400,-82.7400,0.05,1111122 
COMPS,ioos:station:USF.COMPS:ANM:1,2009-12-01T16:06:00Z,27.5400,-82.7400,0.059,1111122 
COMPS,ioos:station:USF.COMPS:ANM:1,2009-12-01T16:12:00Z,27.5400,-82.7400,0.056,1111122 
COMPS,ioos:station:USF.COMPS:ANM:1,2009-12-01T16:18:00Z,27.5400,-82.7400,0.069,1111122 
COMPS,ioos:station:USF.COMPS:ANM:1,2009-12-01T16:24:00Z,27.5400,-82.7400,0.063,1111122 
COMPS,ioos:station:USF.COMPS:ANM:1,2009-12-01T16:30:00Z,27.5400,-82.7400,0.073,1111122 
COMPS,ioos:station:USF.COMPS:ANM:1,2009-12-01T16:36:00Z,27.5400,-82.7400,0.082,1111122 
COMPS,ioos:station:USF.COMPS:ANM:1,2009-12-01T16:42:00Z,27.5400,-82.7400,0.086,1111122 
COMPS,ioos:station:USF.COMPS:ANM:1,2009-12-01T16:48:00Z,27.5400,-82.7400,0.092,1111122 
COMPS,ioos:station:USF.COMPS:ANM:1,2009-12-01T16:54:00Z,27.5400,-82.7400,0.079,1111122 
COMPS,ioos:station:USF.COMPS:ANM:1,2009-12-01T17:00:00Z,27.5400,-82.7400,0.083,1111122 
COMPS,ioos:station:USF.COMPS:ANM:1,2009-12-01T17:06:00Z,27.5400,-82.7400,0.08,1111122 
COMPS,ioos:station:USF.COMPS:ANM:1,2009-12-01T17:12:00Z,27.5400,-82.7400,0.069,1111122 
COMPS,ioos:station:USF.COMPS:ANM:1,2009-12-01T17:18:00Z,27.5400,-82.7400,0.08,1111122 
COMPS,ioos:station:USF.COMPS:ANM:1,2009-12-01T17:24:00Z,27.5400,-82.7400,0.074,1111122 
COMPS,ioos:station:USF.COMPS:ANM:1,2009-12-01T17:30:00Z,27.5400,-82.7400,0.089,1111122 
COMPS,ioos:station:USF.COMPS:ANM:1,2009-12-01T17:36:00Z,27.5400,-82.7400,0.089,1111122 
COMPS,ioos:station:USF.COMPS:ANM:1,2009-12-01T17:42:00Z,27.5400,-82.7400,0.098,1111122 
COMPS,ioos:station:USF.COMPS:ANM:1,2009-12-01T17:48:00Z,27.5400,-82.7400,0.103,1111122 
COMPS,ioos:station:USF.COMPS:ANM:1,2009-12-01T17:54:00Z,27.5400,-82.7400,0.094,1111122 
COMPS,ioos:station:USF.COMPS:ANM:1,2009-12-01T18:00:00Z,27.5400,-82.7400,0.084,1111122 
COMPS,ioos:station:USF.COMPS:ANM:1,2009-12-01T18:06:00Z,27.5400,-82.7400,0.079,1111122 
COMPS,ioos:station:USF.COMPS:ANM:1,2009-12-01T18:12:00Z,27.5400,-82.7400,0.075,1111122 
COMPS,ioos:station:USF.COMPS:ANM:1,2009-12-01T18:18:00Z,27.5400,-82.7400,0.079,1111122 
COMPS,ioos:station:USF.COMPS:ANM:1,2009-12-01T18:24:00Z,27.5400,-82.7400,0.07,1111122 
COMPS,ioos:station:USF.COMPS:ANM:1,2009-12-01T18:30:00Z,27.5400,-82.7400,0.062,1111122 
COMPS,ioos:station:USF.COMPS:ANM:1,2009-12-01T18:36:00Z,27.5400,-82.7400,0.08,1111122 
COMPS,ioos:station:USF.COMPS:ANM:1,2009-12-01T18:42:00Z,27.5400,-82.7400,0.085,1111122 
COMPS,ioos:station:USF.COMPS:ANM:1,2009-12-01T18:48:00Z,27.5400,-82.7400,0.079,1111122 
COMPS,ioos:station:USF.COMPS:ANM:1,2009-12-01T18:54:00Z,27.5400,-82.7400,0.076,1111122 
COMPS,ioos:station:USF.COMPS:ANM:1,2009-12-01T19:00:00Z,27.5400,-82.7400,0.071,1111122 
COMPS,ioos:station:USF.COMPS:ANM:1,2009-12-01T19:06:00Z,27.5400,-82.7400,0.067,1111122 
COMPS,ioos:station:USF.COMPS:ANM:1,2009-12-01T19:12:00Z,27.5400,-82.7400,0.059,1111122 
COMPS,ioos:station:USF.COMPS:ANM:1,2009-12-01T19:18:00Z,27.5400,-82.7400,0.061,1111122 
COMPS,ioos:station:USF.COMPS:ANM:1,2009-12-01T19:24:00Z,27.5400,-82.7400,0.066,1111122 
COMPS,ioos:station:USF.COMPS:ANM:1,2009-12-01T19:30:00Z,27.5400,-82.7400,0.062,1111122 
COMPS,ioos:station:USF.COMPS:ANM:1,2009-12-01T19:36:00Z,27.5400,-82.7400,0.052,1111122 
COMPS,ioos:station:USF.COMPS:ANM:1,2009-12-01T19:42:00Z,27.5400,-82.7400,0.06,1111122 
COMPS,ioos:station:USF.COMPS:ANM:1,2009-12-01T19:48:00Z,27.5400,-82.7400,0.063,1111122 
COMPS,ioos:station:USF.COMPS:ANM:1,2009-12-01T19:54:00Z,27.5400,-82.7400,0.057,1111122 
COMPS,ioos:station:USF.COMPS:ANM:1,2009-12-01T20:00:00Z,27.5400,-82.7400,0.044,1111122 
COMPS,ioos:station:USF.COMPS:ANM:1,2009-12-01T20:06:00Z,27.5400,-82.7400,0.05,1111122 
COMPS,ioos:station:USF.COMPS:ANM:1,2009-12-01T20:12:00Z,27.5400,-82.7400,0.049,1111122 
COMPS,ioos:station:USF.COMPS:ANM:1,2009-12-01T20:18:00Z,27.5400,-82.7400,0.048,1111122 
COMPS,ioos:station:USF.COMPS:ANM:1,2009-12-01T20:24:00Z,27.5400,-82.7400,0.052,1111122 
COMPS,ioos:station:USF.COMPS:ANM:1,2009-12-01T20:30:00Z,27.5400,-82.7400,0.052,1111122 
COMPS,ioos:station:USF.COMPS:ANM:1,2009-12-01T20:36:00Z,27.5400,-82.7400,0.049,1111122 
COMPS,ioos:station:USF.COMPS:ANM:1,2009-12-01T20:42:00Z,27.5400,-82.7400,0.047,1111122 
COMPS,ioos:station:USF.COMPS:ANM:1,2009-12-01T20:48:00Z,27.5400,-82.7400,0.048,1111122 
COMPS,ioos:station:USF.COMPS:ANM:1,2009-12-01T20:54:00Z,27.5400,-82.7400,0.054,1111122 
COMPS,ioos:station:USF.COMPS:ANM:1,2009-12-01T21:00:00Z,27.5400,-82.7400,0.062,1111122 
COMPS,ioos:station:USF.COMPS:ANM:1,2009-12-01T21:06:00Z,27.5400,-82.7400,0.069,1111122 
COMPS,ioos:station:USF.COMPS:ANM:1,2009-12-01T21:12:00Z,27.5400,-82.7400,0.079,1111122 
COMPS,ioos:station:USF.COMPS:ANM:1,2009-12-01T21:18:00Z,27.5400,-82.7400,0.089,1111122 
COMPS,ioos:station:USF.COMPS:ANM:1,2009-12-01T21:24:00Z,27.5400,-82.7400,0.101,1111122 
COMPS,ioos:station:USF.COMPS:ANM:1,2009-12-01T21:30:00Z,27.5400,-82.7400,0.092,1111122 
COMPS,ioos:station:USF.COMPS:ANM:1,2009-12-01T21:36:00Z,27.5400,-82.7400,0.081,1111122 
COMPS,ioos:station:USF.COMPS:ANM:1,2009-12-01T21:42:00Z,27.5400,-82.7400,0.108,1111122 
COMPS,ioos:station:USF.COMPS:ANM:1,2009-12-01T21:48:00Z,27.5400,-82.7400,0.108,1111122 
COMPS,ioos:station:USF.COMPS:ANM:1,2009-12-01T21:54:00Z,27.5400,-82.7400,0.121,1111122 
COMPS,ioos:station:USF.COMPS:ANM:1,2009-12-01T22:00:00Z,27.5400,-82.7400,0.13,1111122 
COMPS,ioos:station:USF.COMPS:ANM:1,2009-12-01T22:06:00Z,27.5400,-82.7400,0.136,1111122 
COMPS,ioos:station:USF.COMPS:ANM:1,2009-12-01T22:12:00Z,27.5400,-82.7400,0.129,1111122 
COMPS,ioos:station:USF.COMPS:ANM:1,2009-12-01T22:18:00Z,27.5400,-82.7400,0.157,1111122 
COMPS,ioos:station:USF.COMPS:ANM:1,2009-12-01T22:24:00Z,27.5400,-82.7400,0.18,1111122 
COMPS,ioos:station:USF.COMPS:ANM:1,2009-12-01T22:30:00Z,27.5400,-82.7400,0.19,1111122 
COMPS,ioos:station:USF.COMPS:ANM:1,2009-12-01T22:36:00Z,27.5400,-82.7400,0.198,1111122 
COMPS,ioos:station:USF.COMPS:ANM:1,2009-12-01T22:42:00Z,27.5400,-82.7400,0.208,1111122 
COMPS,ioos:station:USF.COMPS:ANM:1,2009-12-01T22:48:00Z,27.5400,-82.7400,0.225,1111122 
COMPS,ioos:station:USF.COMPS:ANM:1,2009-12-01T22:54:00Z,27.5400,-82.7400,0.229,1111122 
COMPS,ioos:station:USF.COMPS:ANM:1,2009-12-01T23:00:00Z,27.5400,-82.7400,0.237,1111122 
COMPS,ioos:station:USF.COMPS:ANM:1,2009-12-01T23:06:00Z,27.5400,-82.7400,0.245,1111122 
COMPS,ioos:station:USF.COMPS:ANM:1,2009-12-01T23:12:00Z,27.5400,-82.7400,0.257,1111122 
COMPS,ioos:station:USF.COMPS:ANM:1,2009-12-01T23:18:00Z,27.5400,-82.7400,0.273,1111122 
COMPS,ioos:station:USF.COMPS:ANM:1,2009-12-01T23:24:00Z,27.5400,-82.7400,0.282,1111122 
COMPS,ioos:station:USF.COMPS:ANM:1,2009-12-01T23:30:00Z,27.5400,-82.7400,0.298,1111122 
COMPS,ioos:station:USF.COMPS:ANM:1,2009-12-01T23:36:00Z,27.5400,-82.7400,0.305,1111122 
COMPS,ioos:station:USF.COMPS:ANM:1,2009-12-01T23:42:00Z,27.5400,-82.7400,0.316,1111122 
COMPS,ioos:station:USF.COMPS:ANM:1,2009-12-01T23:48:00Z,27.5400,-82.7400,0.327,1111122 
COMPS,ioos:station:USF.COMPS:ANM:1,2009-12-01T23:54:00Z,27.5400,-82.7400,0.331,1111122 
COMPS,ioos:station:USF.COMPS:ANM:1,2009-12-02T00:00:00Z,27.5400,-82.7400,0.35,1111122 
COMPS,ioos:station:USF.COMPS:ANM:1,2009-12-02T00:06:00Z,27.5400,-82.7400,0.352,1111122 
COMPS,ioos:station:USF.COMPS:ANM:1,2009-12-02T00:12:00Z,27.5400,-82.7400,0.348,1111122 
COMPS,ioos:station:USF.COMPS:ANM:1,2009-12-02T00:18:00Z,27.5400,-82.7400,0.372,1111122 
COMPS,ioos:station:USF.COMPS:ANM:1,2009-12-02T00:24:00Z,27.5400,-82.7400,0.39,1111122 
COMPS,ioos:station:USF.COMPS:ANM:1,2009-12-02T00:30:00Z,27.5400,-82.7400,0.408,1111122 
COMPS,ioos:station:USF.COMPS:ANM:1,2009-12-02T00:36:00Z,27.5400,-82.7400,0.424,1111122 
COMPS,ioos:station:USF.COMPS:ANM:1,2009-12-02T00:42:00Z,27.5400,-82.7400,0.421,1111122 
COMPS,ioos:station:USF.COMPS:ANM:1,2009-12-02T00:48:00Z,27.5400,-82.7400,0.445,1111122 
COMPS,ioos:station:USF.COMPS:ANM:1,2009-12-02T00:54:00Z,27.5400,-82.7400,0.452,1111122 
COMPS,ioos:station:USF.COMPS:ANM:1,2009-12-02T01:00:00Z,27.5400,-82.7400,0.466,1111122 
COMPS,ioos:station:USF.COMPS:ANM:1,2009-12-02T01:06:00Z,27.5400,-82.7400,0.475,1111122 
COMPS,ioos:station:USF.COMPS:ANM:1,2009-12-02T01:12:00Z,27.5400,-82.7400,0.488,1111122 
COMPS,ioos:station:USF.COMPS:ANM:1,2009-12-02T01:18:00Z,27.5400,-82.7400,0.501,1111122 
COMPS,ioos:station:USF.COMPS:ANM:1,2009-12-02T01:24:00Z,27.5400,-82.7400,0.508,1111122 
COMPS,ioos:station:USF.COMPS:ANM:1,2009-12-02T01:30:00Z,27.5400,-82.7400,0.521,1111122 
COMPS,ioos:station:USF.COMPS:ANM:1,2009-12-02T01:36:00Z,27.5400,-82.7400,0.522,1111122 
COMPS,ioos:station:USF.COMPS:ANM:1,2009-12-02T01:42:00Z,27.5400,-82.7400,0.538,1111122 
COMPS,ioos:station:USF.COMPS:ANM:1,2009-12-02T01:48:00Z,27.5400,-82.7400,0.544,1111122 
COMPS,ioos:station:USF.COMPS:ANM:1,2009-12-02T01:54:00Z,27.5400,-82.7400,0.545,1111122 
COMPS,ioos:station:USF.COMPS:ANM:1,2009-12-02T02:00:00Z,27.5400,-82.7400,0.546,1111122 
COMPS,ioos:station:USF.COMPS:ANM:1,2009-12-02T02:06:00Z,27.5400,-82.7400,0.556,1111122 
COMPS,ioos:station:USF.COMPS:ANM:1,2009-12-02T02:12:00Z,27.5400,-82.7400,0.553,1111122 
COMPS,ioos:station:USF.COMPS:ANM:1,2009-12-02T02:18:00Z,27.5400,-82.7400,0.553,1111122 
COMPS,ioos:station:USF.COMPS:ANM:1,2009-12-02T02:24:00Z,27.5400,-82.7400,0.562,1111122 
COMPS,ioos:station:USF.COMPS:ANM:1,2009-12-02T02:30:00Z,27.5400,-82.7400,0.55,1111122 
COMPS,ioos:station:USF.COMPS:ANM:1,2009-12-02T02:36:00Z,27.5400,-82.7400,0.564,1111122 
COMPS,ioos:station:USF.COMPS:ANM:1,2009-12-02T02:42:00Z,27.5400,-82.7400,0.571,1111122 
COMPS,ioos:station:USF.COMPS:ANM:1,2009-12-02T02:48:00Z,27.5400,-82.7400,0.567,1111122 
COMPS,ioos:station:USF.COMPS:ANM:1,2009-12-02T02:54:00Z,27.5400,-82.7400,0.572,1111122 